Location: Fernhill
(41.0167°S, 175.6333°E)
Time: 05:41:48
(UTC+00:00)

USA 281 - Pass Details

Date: 08 November 2025
Orbit: 1079 x 1080 km, 106.0° (Epoch: 08 December)

Event Time Altitude Azimuth Distance (km) Brightness Sun altitude
Rises 08:15:25 0° 146° (SE) 3,911 6.2 -12.2°
Reaches altitude 10° 08:18:26 10° 133° (SE) 2,947 5.4 -12.6°
Maximum altitude 08:23:54 27° 77° (ENE) 1,961 4.1 -13.5°
Enters shadow 08:27:33 17° 34° (NNE) 2,445 4.5 -14.0°
